Content
SEND FEEDBACK

United States of America Flag

BIG TIMBER, MONTANA


Home > North America > United States > Montana
Elevation: 4482 feet     Latitude: 45 48N     Longitude: 109 58W

WEATHER
 
SELECT A DAY
Number of Records: 188,485;   Date Range: 1/1/95 - 7/31/15
 
SHARE

PRINT THIS DATA

[ ← Previous Day ]
WEATHER ALMANAC - AUGUST 18, 2014
[ Next Day → ]
[ °C ]   °F
Weather ElementAverageHighLow
Temperature68.9 °F88 °F (3:53 pm)46.9 °F (4:53 am)
Dewpoint41.7 °F46.9 °F (2:53 am)34 °F (6:53 pm)
Humidity43.5 %80 % (2:53 am)15 % (6:53 pm)
Barometer29.92 in30.03 in (2:26 pm)29.78 in (11:53 pm)
Wind Speed8.2 mph27.6 mph (5:34 pm)
Wind Gust36.8 mph (5:53 pm)
Weather ElementAverage
Visibility10 mi
Wind DirectionSSW (212.3 °)

Weather ElementTotal
Precipitation---
Cooling Degree Days2.5 (Base 65)
Growing Degree Days17.5 (Base 50)
Averaged from 22 records on August 18, 2014
WEATHER CONDITIONS BREAKOUT
WIND DIRECTION BREAKOUT
WEATHER BY HOUR - AUGUST 18, 2014
[ °C ]   °F
Local TimeTemperatureDewpointHumidityBarometerVisibilityWind DirectionWind SpeedGust SpeedPrecipitationEventsConditions
1:53 AM55.9 °F44.1 °F64 %30.03 in10.0 miNW (310°)5.8 mphClear
2:53 AM52.0 °F42.1 °F69 %30.03 in10.0 miWSW (250°)5.8 mphClear
3:53 AM51.1 °F42.1 °F71 %30.02 in10.0 miCalmClear
4:53 AM46.9 °F41.0 °F80 %30.03 in10.0 miSW (230°)3.5 mphClear
5:53 AM48.9 °F42.1 °F77 %30.02 in10.0 miWNW (290°)4.6 mphClear
6:53 AM48.0 °F42.1 °F80 %30.03 in10.0 miCalmClear
7:53 AM54.0 °F44.1 °F69 %30.02 in10.0 miNW (320°)3.5 mphClear
8:53 AM60.1 °F45.0 °F57 %30.02 in10.0 miWNW (290°)4.6 mphClear
9:53 AM68.0 °F46.9 °F47 %29.98 in10.0 miNW (320°)4.6 mphClear
10:53 AM73.0 °F45.0 °F37 %29.96 in10.0 miVariable5.8 mphClear
11:53 AM78.1 °F45.0 °F31 %29.94 in10.0 miWNW (290°)8.1 mphClear
12:53 PM82.9 °F42.1 °F24 %29.90 in10.0 miNW (320°)8.1 mphClear
1:53 PM86.0 °F42.1 °F21 %29.87 in10.0 miNNW (340°)13.8 mphClear
2:53 PM86.0 °F39.9 °F20 %29.86 in10.0 miVariable3.5 mphScattered Clouds
3:53 PM86.0 °F36.0 °F17 %29.83 in10.0 miVariable4.6 mphPartly Cloudy
5:53 PM88.0 °F34.0 °F15 %29.80 in10.0 miWest (270°)9.2 mph19.6 mphClear
6:31 PM81.0 °F39.9 °F23 %29.93 in10.0 miSSW (210°)27.6 mph36.8 mphScattered Clouds
6:53 PM82.0 °F39.0 °F22 %29.82 in10.0 miSSW (210°)20.7 mph26.5 mphPartly Cloudy
7:53 PM79.0 °F39.9 °F25 %29.80 in10.0 miSSW (210°)13.8 mphClear
8:53 PM75.9 °F39.0 °F26 %29.81 in10.0 miSW (230°)12.7 mphClear
10:53 PM69.1 °F42.1 °F38 %29.79 in10.0 miWNW (300°)11.5 mphClear
11:53 PM64.9 °F43.0 °F45 %29.78 in10.0 miWest (280°)9.2 mphClear
Hourly data recorded from KLVM, located miles away from Big Timber, Montana







STORIES FROM OUR PARTNERS